Location: Moscow Ponds
(41.5222°N, 71.7458°W)
Time: 01:28:47
(UTC+00:00)

Daily predictions for brighter satellites

Satellite Brightness Start Highest point End
(mag) Time Altitude Azimuth Time Altitude Azimuth Time Altitude Azimuth
Cosmos 1943 Rocket 3.9 00:18:38 10° SSW 00:20:25 21° SSW 00:20:25 21° SSW
Timation 2 Rocket 4.3 00:19:05 10° SSW 00:24:53 68° SSW 00:24:53 68° SSW
Cosmos 1833 Rocket 4.0 00:39:34 10° NW 00:44:22 37° W 00:44:22 37° W
ACS3 Solar Sail 4.3 07:15:23 10° NE 07:16:10 13° NE 07:16:10 13° NE
Cosmos 2219 Rocket 4.3 08:00:18 21° NE 08:00:18 21° NE 08:02:06 10° NNE
ADEOS Rocket 4.5 07:56:04 10° NNE 07:59:30 34° NNE 07:59:30 34° NNE
Cosmos 2278 Rocket 4.4 08:35:46 10° N 08:39:57 21° NE 08:44:04 10° E
Cosmos 2333 Rocket 4.4 08:45:36 14° N 08:45:36 14° N 08:46:35 10° N
USA 267 3.5 08:36:40 10° NE 08:42:21 55° N 08:42:21 55° N
CZ-3 R/B 4.3 08:32:32 15° SW 08:44:00 27° S 08:50:47 10° ESE
COSMOS 2455 4.4 08:54:33 22° N 08:54:33 22° N 08:57:10 10° NNE
Cosmos 2360 Rocket 4.1 09:04:26 17° N 09:04:26 17° N 09:06:04 10° N
Cosmos 2322 Rocket 4.2 09:04:58 15° N 09:04:58 15° N 09:06:17 10° N
Cosmos 1153 Rocket 4.3 08:56:05 10° N 09:02:18 87° W 09:08:33 10° S
ACS3 Solar Sail 3.2 08:57:56 10° N 09:00:18 24° NNW 09:00:18 24° NNW
Gbstr 26 Del rocket 3.4 09:05:27 69° NNE 09:05:27 69° NNE 09:10:33 10° NE
Chandra Rocket (1) 4.3 09:06:08 21° S 09:08:13 26° SSE 09:17:35 10° ESE
Cosmos 1943 Rocket 3.5 09:11:07 10° N 09:16:14 37° ENE 09:21:18 10° SE
USA 234 3.2 09:11:27 10° SE 09:18:01 89° NE 09:20:57 37° NW
PAYLOAD A 3.9 09:12:47 10° N 09:18:12 77° WNW 09:20:38 33° SSW
Cosmos 1140 Rocket 3.9 09:15:53 18° N 09:19:40 60° ENE 09:24:41 10° SSE
CZ-2C R/B 2.7 09:15:11 10° N 09:19:10 50° NNW 09:19:10 50° NNW
ARGOS 3.4 09:16:11 10° N 09:20:39 48° NW 09:20:39 48° NW
Meteor 2-14 Rocket 4.3 09:15:48 10° SSW 09:21:52 71° W 09:27:58 10° N
Intercosmos 25 Rocket 4.3 09:22:15 25° SSW 09:25:15 71° W 09:33:15 10° N
Iridium 4 Rocket 4.2 09:28:05 10° NNE 09:32:10 42° E 09:36:06 10° SSE
Cosmos 1809 Rocket 4.5 09:28:14 10° SSW 09:34:10 54° WNW 09:40:09 10° N
Timation 2 Rocket 4.2 09:30:18 10° NNW 09:36:58 73° ENE 09:43:18 10° SSE
Cosmos 374 Rocket 4.1 09:39:39 62° WSW 09:40:10 75° NW 09:44:13 10° NNE
Cosmos 2219 Rocket 3.5 09:42:02 22° NW 09:42:02 22° NW 09:45:21 10° N
IRS-1D 3.6 09:38:40 10° NNE 09:43:38 74° ESE 09:48:32 10° S
COSMO-SKYMED 1 3.9 09:42:22 10° SE 09:46:11 38° ENE 09:50:01 10° N
SL-08 RB Rocket 4.3 09:43:12 10° N 09:46:47 36° NW 09:46:47 36° NW
ADEOS Rocket 4.5 09:42:46 10° NNW 09:46:25 21° NW 09:46:25 21° NW
Orbus 7S? 4.0 09:39:53 10° SW 09:47:45 81° SE 09:51:21 10° NE
Cosmos 2100 Rocket 3.9 09:42:14 10° NNW 09:48:16 61° W 09:54:19 10° S
SKYMED 2 4.0 09:45:41 10° SSE 09:49:57 62° ENE 09:54:15 10° N
NOSS 3-1 (C) 3.4 09:49:30 35° WNW 09:50:23 38° NW 09:55:33 10° NNE
COSMOS 2428 2.8 09:47:51 22° SW 09:51:16 50° WNW 09:56:49 10° NNE
NOSS 0 Rocket 3.8 09:47:44 10° SSW 09:53:52 77° WNW 10:00:04 10° NNE
Cosmos 1328 3.7 09:55:02 27° SW 09:56:35 46° W 10:00:08 10° N
USA 276 1.4 09:57:54 81° NNW 09:57:59 84° NNE 10:00:45 10° ESE
Cosmos 2322 4.2 09:56:05 26° WSW 09:58:37 38° WNW 10:03:55 10° N
Cosmos 407 Rocket 3.6 09:57:07 10° NNW 10:02:14 74° ENE 10:07:19 10° SSE
FengYun 1-2 T 4.3 10:00:17 10° N 10:05:42 56° WNW 10:11:09 10° SSW
Cosmos 921 Rocket 4.2 10:07:02 23° WSW 10:07:02 23° WSW 10:10:02 10° SSW
Cosmos 1703 Rocket 3.7 10:02:24 10° SSW 10:06:36 49° WNW 10:10:51 10° N
USA 59 Rocket 1.4 10:08:03 14° NNW 10:08:03 14° NNW 10:08:54 10° N
Cosmos 1939 Rocket 3.6 10:04:46 10° N 10:08:05 28° WNW 10:08:20 28° WNW
Cosmos 1459 Rocket 4.2 10:02:45 10° NNW 10:08:48 47° W 10:14:48 10° SSW
Cosmos 1864 Rocket 4.5 10:03:58 10° NNW 10:10:09 62° W 10:16:22 10° S
Cosmos 1980 3.6 10:04:50 10° SSW 10:10:28 77° WNW 10:16:09 10° NNE
BlueWalker 3 1.7 10:09:09 28° WNW 10:10:56 78° SW 10:14:31 10° SE
Helios 1A Rocket 2.3 10:09:19 10° S 10:12:42 73° WSW 10:16:06 10° NNW
Cosmos 1725 Rocket 4.1 10:13:39 10° NNW 10:19:50 57° W 10:25:58 10° S
Cosmos 2251 Rocket 4.1 10:16:40 10° NNW 10:21:59 61° ENE 10:27:16 10° SSE
Cosmos 2242 Rocket 4.5 10:19:58 10° S 10:24:12 52° E 10:28:28 10° NNE
Cosmos 2278 Rocket 2.2 10:18:54 10° NNW 10:24:30 66° WSW 10:30:05 10° S
USA 267 4.4 10:19:56 10° NE 10:25:12 27° NNW 10:29:41 13° WNW
Cosmos 2237 Rocket 2.2 10:21:09 10° SW 10:26:45 62° WNW 10:32:22 10° NNE
Cosmos 1802 Rocket 4.3 10:22:07 10° NNW 10:28:04 44° W 10:33:57 10° SSW
Cosmos 2292 Rocket 4.0 10:25:42 10° SSW 10:29:33 43° WNW 10:34:30 10° N
Cosmos 2233 Rocket 4.0 10:24:32 10° NNW 10:30:49 70° W 10:37:01 10° S
Cosmos 1782 Rocket 3.6 10:26:44 10° NNW 10:31:03 59° W 10:35:19 10° S
Cosmos 1812 4.3 10:31:46 10° NNE 10:34:21 27° ENE 10:36:54 10° SE
NOSS 3-1 (A) 3.3 10:30:12 10° WSW 10:34:38 42° NW 10:39:55 10° NNE
CZ-4 R/B 4.3 10:30:22 10° N 10:34:54 39° WNW 10:39:20 10° SW
Meteor 1-24 Rocket 4.4 10:32:14 10° SW 10:37:18 31° WNW 10:42:15 10° N
Cosmos 1624 Rocket 4.4 10:33:08 10° S 10:38:16 70° ESE 10:43:26 10° NNE
Cosmos 2369 Rocket 4.2 10:37:14 10° N 10:41:54 26° NE 10:46:35 10° ESE
Cosmos 1420 Rocket 4.0 10:38:39 10° SSW 10:43:50 61° WNW 10:49:05 10° NNE
Cosmos 44 Rocket 4.4 10:39:41 10° NW 10:44:03 29° WSW 10:48:24 10° S
Cosmos 1300 Rocket 4.3 10:47:17 10° NNW 10:51:05 30° W 10:54:51 10° SSW
ARIANE 5 R/B 4.0 10:48:45 10° NNE 10:53:33 42° E 10:58:22 10° S
ATLAS 3B R/B 4.0 10:46:55 10° S 10:54:01 52° ESE 11:01:32 10° NE
SWARM C 4.4 10:51:30 10° S 10:54:48 78° W 10:58:08 10° N
SWARM A 4.3 10:51:36 10° S 10:54:54 86° E 10:58:14 10° N
SMAP 3.8 10:52:20 10° NNE 10:56:57 59° E 11:01:31 10° S
Cosmos 1943 Rocket 2.9 10:55:02 10° NW 10:59:48 31° WSW 11:04:33 10° SSW
USA 234 4.4 10:56:25 10° S 11:01:31 24° WSW 11:06:38 10° WNW
